Wind_Speed
30 32 34 33 30 29 31 33 35 37 38 40 41 42 43 45 48 53 55 56 56 54 54 59 59 60 66 72 75 79 81 82 84 86 87 90 91 91 90 88 87 86 87 87 88 87 84 82 79 75 75 75 75 74 73 71 66 61 58 57 54 48 44 42 43 45 44 44 47 50 49 48 48 50 50 50 49 47 46 45 44 41 38 38 37 39
28 30 31 31 28 27 27 28 30 31 33 34 37 39 40 42 45 48 50 49 48 47 50 52 51 54 61 67 71 76 78 79 82 85 87 90 92 91 90 89 88 87 87 87 87 88 85 84 81 77 77 77 77 76 72 71 68 63 60 56 50 44 40 40 42 43 41 40 45 51 51 47 48 48 47 47 48 47 46 44 41 39 38 37 37 38
28 28 28 29 29 27 26 26 26 27 29 30 32 34 36 40 40 43 45 43 40 41 46 46 44 49 57 62 68 72 73 76 80 84 87 91 92 92 91 90 89 88 87 87 88 89 86 85 82 79 79 80 80 78 73 70 67 63 60 54 46 41 39 40 43 43 41 40 44 50 52 48 49 49 46 47 48 45 42 41 39 38 39 38 37 37
28 27 27 27 27 26 25 24 23 24 26 27 28 30 32 35 34 36 41 38 35 37 42 41 40 47 54 59 65 69 71 73 77 82 87 90 92 93 92 91 90 88 87 87 89 90 87 86 84 80 81 83 82 79 74 68 63 61 59 52 45 43 44 45 45 44 44 43 44 48 51 52 51 49 46 46 44 37 34 35 37 38 38 38 38 35
26 25 25 24 24 24 23 23 23 23 24 25 25 26 28 31 29 31 35 33 31 34 38 38 37 44 52 56 62 68 70 71 73 79 85 89 91 93 94 93 92 90 87 87 89 90 88 86 84 82 83 85 83 80 74 67 61 61 61 55 50 49 49 49 50 48 46 45 43 44 47 51 50 47 44 41 37 34 33 35 35 36 36 36 36 32
22 21 21 21 20 21 21 22 22 22 22 22 21 21 24 27 27 28 29 28 27 30 33 33 34 41 50 54 60 67 69 70 72 75 81 87 91 94 95 94 93 91 88 88 89 90 88 86 85 83 85 87 83 80 75 68 63 61 61 60 57 55 51 50 52 50 47 46 45 44 46 48 47 44 41 39 38 37 37 35 34 33 33 33 32 29
17 16 15 16 16 17 18 19 20 20 21 21 19 19 21 24 25 24 24 23 24 25 27 29 32 40 48 53 60 66 67 68 70 72 76 84 90 93 94 94 93 91 90 89 90 91 89 87 86 84 86 87 84 82 76 70 66 63 62 62 61 60 56 53 53 50 46 45 46 48 48 47 46 43 43 43 41 38 34 30 29 29 30 30 29 27
13 12 12 13 13 15 16 17 18 19 19 20 19 19 19 20 22 21 19 19 20 21 25 29 32 40 47 52 59 64 64 65 67 69 74 80 86 91 94 94 93 92 91 91 91 91 91 89 88 86 88 88 87 85 79 73 69 65 64 64 63 63 60 57 54 49 45 46 48 50 49 48 48 47 46 44 40 34 27 22 21 23 25 25 25 26
11 11 12 14 15 16 16 16 17 17 17 17 17 17 18 18 19 18 16 16 17 20 25 29 33 39 45 51 57 60 59 60 62 66 72 77 82 88 93 94 93 92 92 92 92 92 92 91 89 89 91 91 89 87 81 77 75 70 67 66 65 65 63 59 53 48 48 50 51 51 49 49 49 47 45 42 36 29 22 19 19 20 21 22 22 22
13 14 16 18 19 19 19 19 19 18 17 16 15 15 15 15 16 15 14 13 15 19 22 24 29 37 43 50 55 55 53 54 59 65 70 75 80 86 91 93 93 93 93 93 93 93 93 93 91 92 94 93 91 88 84 81 80 75 72 70 67 65 63 58 52 49 52 54 53 50 49 49 46 43 42 39 33 26 21 19 19 19 20 20 19 18
16 18 19 20 21 22 23 24 24 23 21 19 17 15 14 13 14 13 12 12 13 17 18 19 24 32 40 48 51 51 52 55 61 66 71 76 80 84 90 93 94 94 95 95 94 94 95 94 92 94 96 94 92 89 86 85 82 77 74 73 70 65 62 58 53 52 56 56 52 51 50 46 41 39 40 38 32 25 21 20 19 19 20 20 19 19
19 21 22 25 26 27 28 28 28 27 25 23 20 18 16 15 14 13 11 10 11 13 13 16 22 31 40 46 47 47 51 57 62 65 70 76 81 85 89 92 94 95 96 97 96 95 96 96 94 95 98 96 94 91 88 87 84 78 74 75 74 69 63 59 55 56 57 55 53 54 51 44 38 37 38 37 31 24 20 18 18 19 20 20 20 20
22 25 28 31 33 32 32 32 32 30 28 26 23 20 18 17 16 15 13 12 9 9 10 13 20 31 40 42 40 41 46 52 57 63 70 76 81 86 89 92 94 96 97 98 97 97 98 98 95 97 100 99 96 94 91 90 89 83 77 75 76 72 66 60 59 60 58 55 56 56 53 46 41 39 38 36 32 25 21 17 16 18 18 19 20 20
26 29 33 36 37 37 36 36 36 34 32 29 26 22 19 18 17 16 14 12 9 7 7 11 18 28 36 34 32 37 43 47 51 57 64 72 78 83 87 90 93 95 96 97 97 97 99 100 97 99 103 102 100 98 95 95 94 89 84 81 78 74 68 64 62 62 58 57 58 57 52 47 43 40 39 37 35 31 27 23 20 19 18 18 20 20
29 32 35 37 39 40 40 40 40 38 36 33 29 25 23 21 18 16 14 12 9 6 6 9 15 22 28 27 26 32 40 45 50 55 61 67 72 78 82 86 88 92 94 96 96 97 99 101 99 101 106 105 103 102 99 98 97 94 89 84 79 75 70 67 65 63 60 59 60 54 48 44 42 40 40 40 38 36 35 33 28 24 20 19 21 21
31 33 35 37 40 41 42 42 41 40 39 37 34 30 27 26 22 18 15 13 10 7 5 7 12 16 21 23 24 28 35 41 46 52 57 62 68 73 78 82 85 89 93 94 96 96 98 100 100 102 108 108 106 104 102 101 99 96 92 86 79 75 71 68 68 66 62 62 61 52 44 41 41 42 42 43 42 41 40 36 33 28 23 21 23 23
31 33 34 36 39 39 39 39 38 38 39 40 39 35 31 29 27 23 18 14 12 9 6 6 9 12 16 20 21 26 33 39 42 46 51 57 63 70 74 79 83 87 91 94 96 97 96 98 98 100 108 110 108 107 105 103 102 99 95 89 82 76 72 70 72 70 64 64 62 52 43 40 41 42 44 44 42 40 37 33 32 30 26 24 25 24
30 33 33 34 37 38 38 38 38 39 41 42 42 39 36 33 30 27 23 19 14 11 8 7 8 9 12 16 18 22 29 37 42 45 49 52 57 62 68 75 80 85 90 93 96 98 98 99 97 98 106 109 109 109 107 105 105 102 99 94 86 79 75 73 75 75 69 66 62 52 44 43 42 43 44 43 40 35 31 29 31 30 28 26 26 25
29 33 34 35 39 42 42 40 40 41 42 43 43 42 41 39 34 30 27 24 18 13 10 8 8 8 10 13 17 19 24 31 38 44 48 50 50 52 58 68 75 81 86 91 95 98 99 100 99 98 103 109 109 110 109 107 106 104 103 99 91 83 81 78 76 76 73 67 60 52 47 46 44 43 43 42 40 35 29 27 29 30 28 26 26 25
25 29 31 34 40 44 44 43 42 42 42 43 43 43 43 42 38 34 30 26 22 17 12 9 6 6 8 11 14 18 21 27 33 40 44 48 49 50 53 60 69 76 82 87 92 95 98 100 100 99 102 107 109 110 111 109 107 106 105 104 97 89 86 82 76 74 72 67 61 54 49 47 45 44 44 43 41 38 32 28 29 30 27 25 25 25
23 23 27 33 39 42 43 43 43 43 43 44 43 43 43 43 41 37 33 27 23 20 17 13 8 5 6 9 12 16 20 23 29 35 40 44 48 52 55 59 64 70 77 84 89 93 96 99 100 99 101 106 109 111 112 111 109 108 107 106 101 94 88 82 76 72 71 69 64 55 49 47 46 44 44 44 42 39 34 30 30 29 26 25 25 23
20 19 25 33 38 40 42 43 42 42 43 44 43 42 41 40 40 38 35 30 26 22 18 14 11 9 7 8 11 14 18 21 25 30 36 41 44 49 53 57 61 66 72 79 85 90 94 97 99 99 100 105 109 111 112 112 110 109 108 108 103 97 91 83 77 73 72 72 67 55 47 45 45 43 42 41 40 37 36 34 32 28 27 26 24 21
18 18 22 31 36 40 42 42 41 41 42 42 42 42 41 41 40 40 37 34 30 26 20 14 9 7 8 8 9 12 15 18 22 26 31 37 41 45 48 52 56 62 69 75 81 87 92 96 98 98 98 103 108 110 112 113 111 110 109 108 105 100 93 84 79 75 73 73 69 58 49 45 45 44 41 38 35 35 38 38 34 30 29 28 25 21
20 20 24 31 35 39 41 41 40 39 39 40 41 41 42 43 43 42 39 35 32 28 23 18 13 9 6 6 7 9 12 16 19 22 27 32 37 40 43 47 50 55 64 72 78 84 90 94 97 97 97 100 106 109 111 112 113 111 109 108 106 103 96 87 81 76 71 71 70 64 56 50 46 43 39 35 33 34 37 37 35 32 32 31 28 22
15 18 23 28 31 34 37 38 38 37 37 39 40 41 43 44 44 42 39 35 31 27 22 19 18 15 11 8 5 7 9 12 15 19 23 27 33 36 37 42 45 49 56 66 75 81 87 92 95 97 97 98 103 108 110 112 113 112 110 108 106 105 99 90 83 75 69 69 70 66 58 51 46 43 39 35 32 33 36 36 34 33 34 34 30 24
11 13 14 15 19 26 32 35 35 35 36 38 40 41 43 44 45 43 39 34 29 25 22 20 19 18 15 12 8 5 5 8 12 16 20 24 30 34 34 36 42 45 49 59 69 77 83 89 94 97 97 97 100 105 108 110 113 112 110 107 106 104 99 92 85 77 70 68 69 65 57 50 47 45 41 35 32 32 36 37 35 34 35 35 30 24
14 14 13 12 16 26 33 35 35 35 33 35 39 42 44 45 45 43 40 34 27 22 20 20 19 18 15 12 9 6 3 4 8 12 17 22 27 31 31 33 38 42 45 52 62 71 78 84 90 95 97 97 98 103 106 108 110 111 108 105 103 102 98 93 88 83 77 71 68 64 56 50 49 47 42 36 33 33 35 37 36 36 36 33 28 24
17 17 17 16 19 27 31 33 35 37 35 34 39 43 44 44 45 44 41 35 29 23 20 20 20 19 15 11 8 5 3 2 6 10 15 20 24 26 28 32 37 40 43 47 55 64 72 79 86 93 96 97 97 100 103 105 106 108 106 102 101 99 97 96 93 89 84 76 68 63 57 52 50 47 42 38 36 35 36 37 38 37 36 33 28 27
17 18 18 18 20 25 30 31 34 37 38 39 41 42 42 42 42 43 41 37 32 29 26 24 22 20 16 11 8 6 3 0 5 10 14 18 21 23 26 31 37 40 42 45 50 57 66 73 81 88 94 97 97 97 99 101 102 104 102 101 100 98 98 99 96 93 87 77 69 64 59 54 51 46 42 38 37 36 37 38 39 37 35 32 31 31
16 17 18 19 21 24 29 32 32 33 35 37 38 38 39 39 39 40 39 36 35 33 30 28 25 21 16 12 10 7 4 1 3 8 12 16 19 22 26 31 35 39 42 45 49 54 61 69 77 84 90 94 95 94 95 97 99 99 99 100 99 97 98 100 98 94 86 76 71 67 60 54 51 46 41 39 37 36 38 39 38 36 33 32 32 33
16 18 18 20 21 21 27 31 30 29 28 29 32 34 34 34 35 35 33 31 32 32 31 30 27 22 17 13 10 7 5 3 1 5 9 13 16 20 25 28 32 35 39 45 50 55 60 67 73 79 85 90 93 94 94 95 97 97 97 98 98 97 97 98 96 92 83 77 73 67 59 54 50 45 40 38 37 37 40 39 37 35 33 32 33 33
18 19 18 19 19 18 22 26 26 27 28 27 27 26 27 29 31 32 32 30 30 32 33 32 28 23 18 14 11 9 6 4 3 4 8 11 14 18 22 24 27 30 34 42 50 55 59 64 69 74 79 86 91 92 93 94 95 96 96 96 96 95 95 95 94 89 82 79 73 65 58 54 49 44 41 39 38 40 41 38 35 34 34 33 34 35
16 17 17 19 20 20 20 22 21 24 24 20 17 17 21 29 32 33 33 31 30 31 31 30 26 22 18 15 13 10 8 6 4 5 8 11 14 17 20 22 24 27 32 40 48 54 58 62 67 71 76 82 87 90 91 92 94 95 96 95 94 92 92 92 91 86 82 80 73 64 58 53 49 46 44 41 41 43 43 38 35 35 34 34 34 34
14 16 18 18 20 21 21 21 20 19 13 8 10 15 23 28 31 33 32 31 32 32 33 33 30 25 21 19 16 12 7 6 6 7 9 12 14 17 20 23 25 29 33 39 46 54 59 63 66 70 74 79 84 87 90 92 94 95 96 94 91 90 89 90 88 84 83 81 74 64 57 53 50 48 45 43 43 45 44 39 35 35 34 33 33 31
14 17 19 18 19 20 21 21 16 7 2 5 14 22 27 28 32 35 33 31 33 35 36 38 35 30 25 23 19 14 8 5 6 7 9 11 14 17 21 25 29 34 38 42 47 53 59 63 66 69 72 76 81 85 89 92 94 96 95 92 88 87 87 87 85 84 85 83 75 65 57 54 53 50 46 45 47 47 44 39 36 35 33 32 31 29
13 16 17 18 19 19 17 16 9 3 6 17 24 24 26 28 27 31 32 30 31 33 36 38 37 32 27 23 20 16 12 9 5 5 8 10 13 16 20 25 30 36 43 48 51 54 59 63 66 69 72 75 79 83 87 91 94 94 92 88 85 83 83 83 83 84 86 85 76 66 60 58 55 51 49 49 50 49 44 39 38 36 33 30 29 28
13 16 17 16 17 17 13 13 14 15 18 20 17 12 13 15 13 22 29 30 31 33 36 38 38 34 28 24 21 19 16 14 10 6 7 8 11 16 20 24 27 32 40 48 53 56 60 64 67 70 73 76 80 83 87 90 92 91 88 84 82 80 79 80 81 83 84 83 76 69 65 62 57 53 52 53 53 49 44 41 40 38 33 29 27 25
13 16 16 15 15 14 11 14 18 18 15 12 8 4 4 6 12 24 30 32 31 33 36 37 38 35 30 26 23 20 18 17 14 11 10 9 11 15 20 23 24 26 33 42 49 54 58 63 67 70 73 76 79 82 85 87 87 86 84 81 79 77 77 78 80 80 81 81 77 72 68 63 57 55 55 56 54 49 45 43 41 38 32 25 21 20
13 15 15 14 13 12 12 15 15 12 9 6 5 4 4 8 19 28 31 30 29 32 36 38 38 36 32 28 24 21 21 21 20 17 15 13 11 13 19 23 24 25 29 35 42 48 52 56 60 64 67 71 74 77 79 81 82 83 81 79 77 75 75 77 79 79 80 80 77 73 68 62 58 57 57 56 53 49 46 44 41 38 33 24 17 15
13 15 14 13 12 11 12 13 11 9 7 3 3 4 7 13 22 28 27 22 24 31 36 38 39 38 35 29 23 22 25 26 24 21 20 18 13 12 18 23 24 25 27 31 35 39 42 46 50 54 59 63 67 71 74 77 79 79 78 76 74 73 75 77 79 80 80 79 74 70 65 60 58 57 57 55 52 48 47 44 39 36 35 30 22 17
13 14 14 13 11 10 11 11 9 8 6 4 4 5 8 16 23 22 16 16 25 33 37 39 40 39 36 32 26 26 29 31 28 24 20 18 17 17 20 23 23 23 25 29 32 34 36 39 42 47 53 58 62 67 71 74 75 75 74 72 71 72 75 78 80 81 79 74 69 65 61 58 57 57 56 54 51 49 46 42 38 35 35 34 30 25
14 15 15 13 10 10 11 9 7 6 6 6 5 5 9 16 18 14 14 20 29 34 36 37 37 36 37 37 33 32 33 31 27 24 20 18 20 23 23 23 23 23 24 27 31 34 37 39 40 44 49 55 60 64 68 70 70 69 68 67 68 72 77 80 81 80 75 70 66 61 58 57 57 57 56 53 50 48 45 40 37 35 35 35 33 30
16 15 15 14 11 11 10 7 6 6 7 7 4 5 11 14 12 12 17 23 29 33 34 34 34 34 37 38 36 35 33 27 24 23 22 21 22 24 24 23 22 22 23 26 29 33 36 39 42 45 49 53 57 60 62 63 64 64 64 66 70 75 79 81 80 75 70 66 63 58 57 58 59 58 57 53 49 47 44 39 35 35 35 35 33 31
18 16 15 14 12 11 10 7 6 6 6 6 4 5 9 11 12 15 19 22 27 31 32 32 31 33 35 37 37 37 33 28 26 26 24 24 24 24 24 23 22 22 23 25 28 31 33 36 41 44 48 51 54 57 58 60 61 62 65 69 74 78 79 77 74 69 65 63 60 58 58 60 60 59 57 53 49 46 42 37 35 35 35 34 33 32
19 18 16 15 12 10 8 5 4 5 5 5 5 5 7 9 13 16 18 20 24 28 30 31 30 29 33 37 39 38 36 33 30 27 26 25 24 24 24 24 23 23 23 25 28 31 32 34 38 43 47 50 53 55 57 60 62 65 69 73 76 76 75 72 66 62 61 60 58 58 60 61 60 58 55 52 49 46 41 37 36 36 35 35 34 33
21 20 18 16 14 10 7 4 1 3 5 6 7 5 6 9 13 16 16 17 22 27 30 30 28 28 32 36 39 40 39 35 31 28 26 24 23 23 23 23 23 23 24 25 28 31 34 36 37 40 44 47 51 54 57 60 64 67 70 72 74 74 72 67 61 58 59 58 58 59 61 60 57 55 53 50 47 45 42 38 37 36 36 36 37 35
22 21 19 17 15 12 8 5 2 3 5 8 10 7 5 8 13 16 15 15 19 25 28 29 30 31 32 35 37 38 39 37 32 27 25 24 24 24 23 22 23 23 24 26 29 32 35 39 40 41 43 46 50 54 57 60 62 64 66 68 70 70 68 63 58 57 57 57 58 60 59 55 52 51 50 49 47 45 42 39 38 38 38 38 38 38
23 22 20 19 16 13 10 8 4 4 6 10 12 10 7 8 12 15 15 15 17 21 25 28 32 34 33 33 34 35 35 34 32 28 26 25 25 26 24 24 25 26 25 26 29 32 35 39 42 44 46 48 51 54 56 58 59 60 62 63 64 64 62 59 56 56 57 58 59 57 54 50 47 47 47 46 45 44 42 41 41 41 41 41 41 41
23 23 22 20 18 15 12 11 8 6 7 10 14 13 9 9 12 15 16 15 17 19 22 26 30 33 33 31 31 32 32 31 30 30 29 28 29 30 29 28 29 31 30 29 31 33 36 38 41 44 47 49 52 54 56 57 58 59 59 60 60 58 55 54 54 56 58 59 57 53 49 47 47 46 45 45 45 45 45 45 45 45 44 44 45 45
22 24 24 23 21 18 15 13 11 8 8 10 13 15 13 11 13 15 16 16 17 19 21 24 28 30 31 31 30 31 31 31 29 27 26 28 30 32 33 33 34 35 34 34 34 35 37 40 42 44 47 49 50 52 54 56 58 59 60 60 59 55 50 50 53 57 60 59 55 51 50 49 49 48 47 47 47 47 48 48 48 48 47 46 47 48
18 23 25 25 23 21 18 15 13 10 9 11 13 15 15 14 14 16 18 18 18 19 21 23 26 29 30 31 31 32 32 31 28 24 24 26 30 33 35 37 37 37 38 39 39 38 39 41 43 46 49 51 52 53 55 56 57 58 59 58 56 52 49 49 52 56 60 60 57 54 53 51 50 49 48 48 49 49 49 49 48 48 49 49 49 49
Wind_Direction
288 286 285 286 286 281 277 274 273 272 270 269 267 264 261 258 255 253 251 250 250 248 244 242 238 234 234 234 233 232 228 223 222 220 219 220 220 220 220 221 221 218 217 218 220 220 217 216 214 209 210 213 216 214 210 212 216 217 220 225 227 227 229 232 234 236 235 234 238 242 240 235 236 238 240 242 242 244 247 249 251 253 254 257 259 262
297 294 294 293 290 285 281 278 276 274 272 269 267 265 263 260 257 256 254 252 251 249 246 241 236 232 231 232 232 231 228 223 221 220 218 218 219 219 219 220 220 218 216 216 219 220 216 215 214 209 209 212 215 215 210 210 214 216 218 220 222 225 228 228 227 226 227 230 235 238 236 232 233 235 237 239 241 243 247 250 252 253 255 256 258 261
303 300 298 297 296 295 291 286 283 280 276 272 269 266 263 260 258 259 258 256 252 248 246 241 233 229 228 228 229 230 227 223 220 219 217 217 217 217 217 218 219 218 215 214 217 220 216 213 213 209 208 212 214 214 211 209 210 214 217 216 216 222 225 225 224 222 222 228 234 235 232 227 228 231 234 237 241 244 247 250 251 251 252 253 255 260
306 304 301 299 299 298 296 293 291 287 282 278 274 271 268 265 263 262 260 257 252 247 244 239 229 226 225 224 226 227 225 222 219 218 217 216 215 216 216 216 217 217 214 212 215 218 216 213 212 208 208 212 214 213 210 206 207 212 216 213 211 216 222 224 225 224 220 223 230 232 229 228 228 230 233 237 241 245 247 247 247 247 249 251 254 259
308 307 306 305 305 305 304 302 300 295 290 286 282 278 275 272 267 263 261 258 251 245 242 237 226 224 223 221 223 225 223 219 217 217 217 215 214 214 215 215 215 215 213 212 213 216 215 212 211 207 208 212 213 211 208 204 204 209 214 213 210 213 218 222 224 223 219 219 227 232 231 231 231 230 231 235 239 241 241 241 242 244 246 250 254 259
313 314 314 315 315 314 313 311 308 305 299 293 286 280 274 271 266 262 260 258 251 244 241 236 225 222 222 219 221 223 221 217 214 214 215 215 213 213 214 214 214 213 212 211 211 214 214 212 210 206 207 211 211 210 207 201 200 205 211 214 213 212 214 218 221 221 218 219 224 231 233 230 228 226 227 230 233 233 235 239 242 245 248 251 255 259
324 326 328 328 327 324 323 322 321 319 313 306 298 288 278 273 270 265 261 257 250 243 239 233 223 221 220 217 219 222 220 216 213 211 213 214 214 212 212 213 213 212 211 210 209 211 212 211 209 205 206 210 211 209 206 199 198 202 207 211 213 212 211 214 219 221 221 222 224 228 230 226 223 221 222 225 229 233 238 243 246 247 249 251 254 256
339 342 345 347 347 346 345 345 341 336 327 319 312 304 293 284 278 272 267 259 250 241 234 227 220 219 219 217 219 221 219 216 213 210 210 213 214 213 212 212 211 211 211 210 208 208 210 210 207 205 205 208 210 208 203 197 196 200 204 207 209 210 210 212 218 220 219 220 222 225 225 223 222 221 223 228 232 235 236 238 240 242 245 247 248 250
357 4 12 14 12 11 8 5 357 347 339 330 322 313 304 295 286 280 273 261 248 238 230 223 218 218 218 217 219 220 219 216 213 210 209 211 213 213 213 212 210 210 210 210 208 207 208 208 205 204 204 207 208 206 201 196 196 199 204 206 208 210 211 213 215 215 215 217 220 223 223 222 221 222 225 229 230 227 224 227 230 232 235 237 239 244
22 30 34 32 28 23 19 15 8 359 352 343 334 323 313 304 294 287 276 261 247 238 232 225 223 223 220 217 218 218 216 214 213 210 208 209 211 212 212 212 210 209 209 209 208 206 207 207 204 202 204 205 207 205 200 196 196 200 205 206 207 209 211 211 209 210 212 215 219 221 220 219 220 222 224 224 222 219 221 226 225 223 226 230 237 247
34 38 40 39 37 33 29 25 19 12 5 357 349 341 331 321 310 299 283 264 250 243 234 224 223 226 226 222 218 214 211 211 211 209 208 207 209 211 211 211 209 208 208 208 208 205 206 207 203 201 203 204 206 205 200 196 195 200 205 206 206 205 206 206 205 208 212 214 217 215 212 213 216 220 221 220 219 218 221 224 224 225 229 235 246 256
36 39 41 42 41 40 38 35 30 23 16 9 3 357 351 344 335 324 309 289 270 258 243 226 221 223 227 224 219 215 212 211 209 207 207 207 207 209 209 209 208 208 208 207 207 205 205 206 202 199 201 203 204 205 200 196 195 198 202 205 206 204 203 202 202 207 210 212 212 208 206 209 212 217 222 224 222 217 217 223 229 235 241 247 255 259
40 43 45 45 44 43 41 40 37 33 27 20 15 11 7 3 356 348 338 326 308 281 253 231 226 228 230 225 217 215 216 216 214 209 207 207 207 208 208 208 207 208 208 207 206 204 204 206 202 198 200 202 203 204 200 196 195 196 198 202 204 204 202 199 200 204 207 207 206 205 206 207 208 214 221 223 221 215 217 225 239 249 253 256 259 258
46 49 51 50 48 46 43 41 38 35 32 28 24 21 20 20 14 6 357 348 336 311 270 235 229 235 237 231 218 214 215 216 218 215 212 209 208 209 208 208 207 207 208 207 206 204 203 205 202 197 199 200 201 203 200 197 196 196 198 200 202 202 200 197 198 202 202 202 203 206 209 209 207 210 214 218 220 221 227 235 248 260 263 261 258 256
51 53 54 53 50 47 43 40 38 35 32 30 28 27 27 28 26 22 13 1 350 329 288 248 236 238 242 237 222 218 219 216 215 216 215 213 211 210 210 209 207 207 208 207 207 205 203 204 202 197 197 199 200 202 201 198 198 197 199 202 202 200 197 196 199 200 198 199 203 208 213 217 218 217 215 217 221 227 234 239 248 259 263 260 257 254
57 56 56 54 51 48 43 40 38 35 32 30 28 28 29 28 26 26 24 14 3 343 297 256 247 242 242 238 223 216 221 221 219 218 217 214 213 212 211 209 207 206 207 207 207 207 205 205 203 197 197 198 199 201 201 199 199 198 198 202 203 200 197 197 201 202 199 200 204 211 219 226 232 232 226 222 223 229 235 239 246 254 258 256 254 254
60 59 58 57 55 53 48 44 40 38 36 33 28 27 29 29 27 24 24 23 15 358 323 281 263 248 239 238 228 217 217 219 220 221 222 219 215 212 211 210 208 206 206 206 206 207 206 207 205 199 197 199 199 201 201 199 199 198 197 199 200 197 196 199 203 205 204 202 205 212 220 222 229 234 231 228 229 231 233 238 245 249 250 250 251 253
59 57 54 54 52 49 45 42 40 40 39 36 31 28 28 29 27 24 22 20 19 9 346 317 295 270 245 236 230 222 219 219 216 216 220 222 219 215 212 211 209 207 206 206 205 206 205 207 207 201 198 199 200 200 201 200 200 198 196 197 198 195 194 199 203 207 209 206 205 211 215 215 220 227 230 232 234 232 233 241 243 240 241 245 249 252
61 59 55 52 49 44 39 36 37 39 40 38 35 32 30 28 27 26 23 16 12 12 1 340 321 295 265 243 229 221 220 223 222 218 217 219 219 218 215 214 212 209 208 207 206 205 204 205 207 203 199 200 201 201 202 201 200 199 197 196 198 196 195 199 203 207 210 207 204 209 213 214 217 222 227 232 234 233 236 242 238 233 236 243 246 249
61 61 58 55 51 46 39 36 36 36 37 37 35 33 31 29 27 26 24 17 11 11 8 358 340 307 278 256 239 225 218 220 224 225 222 219 215 213 213 214 214 212 209 208 207 206 205 204 206 204 200 200 202 202 202 202 201 200 198 197 197 198 198 200 202 206 208 204 203 208 214 216 219 223 228 231 233 234 236 238 236 232 236 240 242 244
59 60 59 56 52 48 42 38 36 36 35 34 32 32 31 30 28 25 23 20 17 16 13 8 356 327 287 261 246 234 224 219 221 226 227 225 219 213 210 209 211 212 211 210 208 207 206 205 205 205 201 200 203 204 203 203 202 201 199 198 198 199 199 200 202 205 206 203 203 207 212 217 222 226 231 234 236 234 231 233 236 234 236 239 238 238
55 54 57 56 52 48 44 38 36 35 35 32 29 28 29 29 29 26 23 21 20 18 17 16 5 344 317 278 253 241 233 225 223 225 227 228 225 220 215 210 207 208 209 210 209 207 207 206 206 205 202 200 203 205 205 204 204 202 200 199 199 200 200 201 202 204 206 204 203 205 210 216 223 228 234 237 239 235 229 231 235 234 235 237 237 236
45 42 51 56 54 49 46 41 37 34 34 32 28 26 27 28 27 25 23 21 19 15 14 19 18 354 327 295 267 250 241 233 228 227 228 230 227 222 219 217 211 206 206 208 209 208 207 207 207 206 203 200 202 206 206 205 205 203 201 200 200 201 203 203 203 204 207 205 203 204 210 218 225 229 232 235 238 234 228 229 232 232 235 237 239 239
48 40 46 53 53 50 47 43 39 36 33 32 28 26 26 27 25 22 19 18 18 15 11 13 17 12 350 315 284 263 249 240 234 231 230 232 232 225 218 216 214 209 205 205 206 208 207 207 207 207 205 201 202 205 207 206 206 205 203 201 201 202 204 204 204 205 207 207 204 204 211 220 225 227 228 231 233 230 227 227 228 231 237 239 240 241
54 49 55 61 60 56 52 46 42 37 33 31 29 26 26 26 23 20 18 16 15 13 14 16 18 17 12 357 320 276 256 244 236 234 232 230 232 230 220 214 213 210 207 205 204 205 207 207 207 208 207 203 202 205 207 207 207 206 204 202 202 204 205 205 206 205 205 206 204 204 211 218 222 225 227 226 226 225 225 226 225 229 237 240 241 241
35 47 59 72 71 64 58 52 46 39 32 30 30 27 25 23 20 17 16 16 14 13 14 19 21 19 16 10 353 316 271 251 236 230 231 227 226 226 218 210 210 209 206 205 205 204 205 206 206 207 208 205 202 204 207 208 207 207 205 203 203 205 205 206 207 205 204 204 203 204 212 216 218 222 222 219 218 222 225 225 223 228 234 238 240 241
8 27 34 46 60 61 55 48 42 35 28 28 31 29 25 21 16 13 13 14 16 17 16 18 20 19 19 18 7 354 332 271 237 223 223 223 222 221 212 203 203 205 203 202 204 205 204 204 205 206 207 207 204 204 206 208 208 208 207 205 204 205 205 206 207 207 205 203 202 205 212 214 216 218 217 212 213 219 224 224 224 227 232 236 238 240
4 20 24 33 52 59 53 43 36 30 22 24 29 28 25 19 13 10 11 13 17 20 21 21 20 17 16 22 24 20 11 280 226 213 213 216 217 216 208 198 196 199 199 198 201 204 204 202 203 205 207 207 206 204 205 208 209 209 208 207 206 205 204 205 207 208 207 204 203 206 210 212 213 214 212 211 212 217 223 224 226 229 231 234 236 239
5 15 17 25 43 55 50 39 32 25 18 20 24 23 23 20 13 9 9 12 18 21 21 21 19 16 14 19 30 41 46 181 211 206 206 210 211 208 202 197 195 194 194 194 195 200 203 202 202 204 205 207 207 205 205 207 209 210 209 208 207 204 202 204 207 208 207 203 203 206 208 209 211 210 210 211 213 218 223 225 225 227 230 232 235 238
5 10 13 23 36 50 49 40 33 25 17 16 20 20 20 18 14 12 11 12 17 20 21 21 17 14 15 21 28 37 47 82 198 205 204 206 205 201 197 196 196 194 191 190 190 192 198 201 201 202 203 205 207 206 204 205 208 210 209 208 207 205 202 203 206 207 205 201 201 204 206 208 210 208 208 212 215 220 225 226 225 226 228 231 234 238
360 3 10 23 29 38 46 42 33 26 17 12 16 21 20 17 15 17 18 17 19 20 21 22 19 15 16 22 33 45 52 69 155 201 204 203 200 197 196 196 196 195 192 189 187 187 191 197 199 200 201 203 205 206 205 204 206 208 208 208 207 205 203 204 206 206 203 198 199 203 205 207 208 206 209 215 217 223 228 227 225 226 228 231 234 240
355 360 7 19 16 17 38 43 32 23 17 10 7 9 14 19 18 20 23 22 22 25 25 23 22 21 19 22 37 55 67 81 122 183 192 194 193 191 192 193 193 193 191 189 187 185 187 192 196 198 199 201 203 204 204 203 204 206 208 208 207 204 203 203 205 205 200 196 198 203 206 207 206 206 211 216 219 226 229 225 223 226 229 231 236 242
357 1 1 7 4 2 23 41 39 31 21 1 337 340 7 23 23 23 24 23 25 31 31 28 28 29 27 28 37 51 68 87 120 169 177 178 182 182 183 185 184 183 185 187 186 184 183 187 192 195 197 199 201 202 203 202 202 204 207 207 206 204 202 203 204 203 198 196 198 203 206 207 207 209 213 216 221 228 229 224 223 227 229 233 238 244
348 355 358 2 4 5 15 29 38 41 30 341 329 360 17 25 30 32 30 26 28 33 34 32 30 30 33 33 34 40 61 100 131 157 167 169 173 175 175 175 174 174 176 181 184 183 181 183 188 192 195 197 198 200 200 201 201 202 205 206 205 203 202 201 202 200 196 195 198 203 206 207 208 210 213 217 223 227 226 223 224 228 230 234 239 245
335 349 357 360 4 9 18 25 23 15 341 360 15 18 15 18 31 40 38 35 36 39 40 37 32 28 29 30 28 30 48 92 130 146 157 164 167 170 172 172 170 172 174 177 182 183 181 181 184 188 192 194 196 197 198 199 200 201 203 205 204 202 201 200 199 198 195 195 199 203 206 207 207 209 212 218 223 224 221 220 223 226 230 234 238 243
333 346 353 359 4 6 18 33 25 335 21 25 19 13 5 7 27 45 47 45 46 48 48 46 40 32 29 29 28 29 36 50 80 124 143 153 163 168 171 172 173 176 177 178 179 181 181 180 181 186 189 192 194 195 196 197 199 200 202 203 202 201 200 198 197 196 195 196 199 203 206 207 206 208 213 218 221 220 218 218 221 223 226 232 236 239
328 341 350 0 3 354 2 35 37 33 37 30 18 6 348 347 27 57 56 53 52 53 53 53 48 41 36 35 34 31 30 40 58 88 116 137 158 166 167 168 172 179 182 181 180 181 182 180 181 184 187 189 191 193 194 195 197 198 200 200 199 199 198 197 196 196 196 197 199 203 205 205 204 208 214 218 218 217 216 217 219 220 223 228 231 231
317 333 352 7 1 347 3 36 32 27 33 35 35 37 328 352 58 65 58 54 55 56 58 57 54 49 44 42 40 37 36 46 63 84 101 119 146 158 159 159 164 174 184 185 183 182 182 181 182 184 187 188 189 190 192 193 194 196 197 198 197 197 196 195 195 195 195 196 199 202 203 202 203 209 214 216 216 215 214 216 217 217 219 223 224 221
311 326 348 3 358 353 21 39 32 25 29 39 65 65 22 52 71 64 55 54 60 62 61 59 57 53 50 47 45 44 45 48 57 72 87 97 117 143 149 150 155 164 177 185 186 186 185 184 185 185 186 187 187 188 189 190 192 194 195 195 195 194 193 193 192 193 194 196 199 201 201 201 204 209 213 214 214 213 214 216 217 215 216 220 225 224
307 320 338 359 4 3 17 29 32 33 31 46 95 62 47 76 76 61 51 59 72 71 66 63 60 56 53 52 53 54 52 48 50 60 75 85 97 128 140 141 147 157 168 178 184 187 188 187 186 186 185 185 185 185 186 187 190 191 192 192 192 191 190 189 190 192 194 196 199 200 200 201 205 209 211 212 212 212 215 217 216 215 217 225 235 240
299 311 328 353 9 6 9 21 34 39 44 77 87 61 74 83 73 59 59 80 81 76 72 68 63 58 56 56 57 58 53 46 43 47 62 83 101 117 125 127 135 148 160 169 174 179 183 184 184 183 182 181 182 182 184 186 188 189 190 189 189 187 186 187 190 192 195 197 198 199 199 202 205 207 208 210 210 212 215 217 216 216 221 229 238 242
291 300 317 338 1 5 4 16 40 54 75 94 83 75 83 75 63 65 90 93 84 80 78 75 71 67 64 59 56 55 51 42 40 48 62 83 100 108 111 115 124 136 150 160 166 170 174 176 178 179 178 178 179 180 182 184 185 186 186 185 184 183 184 187 191 193 195 197 198 198 200 203 204 205 207 209 210 213 216 218 218 222 228 234 238 240
286 294 308 323 344 360 5 22 56 65 80 93 81 69 75 73 75 93 97 91 86 86 86 84 82 80 76 70 65 62 57 50 51 63 75 86 93 98 102 106 115 127 140 151 158 162 166 168 171 173 174 175 176 178 180 181 181 182 182 181 181 182 185 189 192 194 196 198 198 199 201 203 203 204 206 209 211 214 217 219 222 227 233 236 236 237
281 289 301 312 330 352 3 24 56 64 82 101 99 75 77 89 102 100 91 89 91 93 93 92 90 91 90 86 79 73 69 67 67 70 76 83 87 91 97 102 109 119 131 141 149 154 158 162 164 166 168 170 172 175 176 177 178 179 179 180 181 184 187 190 192 195 197 198 199 201 202 202 202 204 207 209 213 216 218 221 225 229 233 235 234 235
274 282 292 301 315 338 351 3 49 83 108 132 134 102 90 105 110 101 93 93 97 100 100 98 96 99 101 98 91 85 80 76 73 73 76 80 84 89 96 101 108 117 126 136 143 147 151 156 159 161 163 166 168 171 173 175 177 178 180 181 183 186 188 190 193 196 198 199 201 202 201 201 202 204 208 211 214 218 220 223 226 229 233 235 235 237
266 274 285 292 302 320 334 335 25 102 126 158 162 132 108 120 118 109 102 101 105 110 110 107 107 110 109 104 100 96 91 84 78 76 80 85 89 93 97 102 110 118 128 136 142 145 149 153 157 161 163 165 167 170 173 176 178 180 181 183 185 187 189 192 196 199 200 201 203 203 201 201 202 206 210 214 217 220 223 226 229 231 234 236 236 238
260 267 275 284 293 305 315 309 264 150 148 167 170 152 130 138 131 119 114 113 115 119 121 120 119 118 114 110 107 104 101 97 92 86 87 93 99 100 104 111 118 123 131 139 144 148 151 154 158 162 165 167 169 172 175 177 179 181 183 185 188 190 193 196 200 202 203 204 205 203 201 202 205 208 212 216 221 223 226 229 231 233 236 237 237 238
254 260 266 274 284 294 300 295 260 192 167 171 175 169 158 158 148 135 128 127 126 127 130 128 124 120 117 114 111 108 107 106 105 105 107 112 112 111 116 125 128 130 135 142 147 151 154 156 159 163 166 169 172 174 176 178 180 183 185 188 191 194 197 201 203 204 205 205 203 202 203 205 207 210 213 217 220 223 226 229 231 233 236 237 236 236
251 254 258 265 274 282 288 288 271 221 181 175 178 177 174 174 165 151 142 140 139 137 136 134 130 126 123 121 118 115 115 117 119 123 127 127 121 119 126 135 138 138 141 148 153 156 158 160 162 165 168 171 174 176 178 180 182 184 187 190 192 195 198 203 205 205 203 202 202 203 206 208 208 210 213 216 218 220 223 226 229 231 233 235 234 235
250 249 252 257 264 270 275 281 275 243 199 181 182 182 182 184 181 168 156 151 151 148 143 141 137 134 132 131 128 126 127 130 132 132 132 132 130 130 134 141 143 142 145 152 158 161 162 163 165 168 171 174 177 179 182 183 185 187 190 192 193 196 201 205 206 205 203 202 204 207 208 209 210 212 214 216 218 221 223 225 228 230 232 234 235 236
255 249 249 251 256 262 265 270 273 259 222 194 187 188 188 190 192 183 170 162 160 157 153 149 146 144 142 140 138 139 140 141 143 144 141 141 144 143 143 147 148 147 149 155 159 163 166 168 169 171 174 177 180 184 186 189 191 192 194 195 196 199 203 203 203 204 205 205 208 211 211 212 214 216 217 219 222 224 227 228 230 231 233 235 236 237
Height
10405 10402 10399 10399 10400 10400 10398 10396 10395 10394 10393 10393 10392 10392 10393 10393 10392 10390 10391 10394 10399 10408 10415 10417 10426 10437 10437 10439 10446 10450 10459 10471 10481 10489 10496 10501 10508 10515 10524 10533 10545 10558 10569 10578 10583 10590 10602 10610 10618 10627 10633 10639 10643 10650 10659 10668 10674 10679 10684 10689 10697 10704 10708 10713 10717 10721 10725 10728 10731 10733 10736 10739 10742 10744 10747 10749 10751 10753 10754 10756 10759 10763 10766 10767 10768 10768
10399 10397 10394 10393 10393 10393 10392 10391 10390 10389 10388 10387 10386 10386 10386 10385 10384 10383 10385 10390 10395 10402 10405 10408 10419 10427 10427 10429 10434 10438 10448 10461 10470 10477 10485 10490 10496 10506 10515 10524 10534 10546 10558 10569 10576 10582 10594 10604 10612 10621 10627 10632 10637 10644 10654 10663 10670 10675 10679 10685 10692 10698 10704 10709 10712 10716 10719 10723 10726 10729 10731 10735 10737 10740 10743 10744 10746 10748 10750 10752 10756 10760 10762 10764 10765 10765
10394 10393 10391 10389 10388 10387 10386 10385 10385 10384 10382 10381 10380 10380 10379 10378 10379 10379 10380 10385 10391 10396 10396 10400 10411 10416 10416 10419 10423 10427 10437 10449 10457 10465 10472 10477 10486 10497 10506 10514 10524 10536 10549 10561 10568 10573 10585 10596 10604 10614 10620 10624 10629 10636 10646 10656 10664 10671 10676 10681 10687 10693 10699 10703 10706 10710 10714 10718 10721 10724 10727 10731 10732 10735 10739 10739 10741 10744 10747 10749 10753 10756 10757 10759 10761 10763
10391 10390 10388 10386 10384 10383 10382 10381 10380 10378 10376 10375 10375 10375 10374 10373 10376 10376 10374 10380 10386 10389 10389 10393 10402 10405 10406 10410 10412 10416 10424 10435 10445 10453 10459 10466 10477 10486 10495 10504 10513 10525 10539 10552 10558 10563 10576 10588 10597 10607 10614 10617 10622 10629 10640 10652 10661 10668 10672 10677 10682 10688 10693 10696 10700 10704 10708 10712 10716 10720 10724 10727 10728 10732 10734 10735 10737 10741 10743 10745 10748 10750 10752 10754 10757 10760
10389 10387 10385 10384 10382 10379 10378 10376 10375 10374 10372 10372 10372 10371 10370 10368 10370 10370 10369 10375 10380 10381 10382 10386 10395 10397 10397 10401 10403 10405 10411 10422 10433 10443 10450 10458 10467 10475 10484 10494 10504 10516 10530 10542 10550 10555 10567 10580 10590 10600 10606 10609 10615 10624 10636 10648 10657 10663 10667 10672 10677 10681 10685 10688 10693 10697 10702 10709 10714 10717 10721 10725 10727 10730 10731 10733 10735 10737 10738 10740 10742 10744 10747 10750 10754 10758
10388 10386 10384 10382 10380 10378 10376 10374 10372 10371 10369 10369 10369 10368 10366 10363 10364 10365 10366 10370 10374 10375 10377 10382 10388 10389 10390 10395 10396 10395 10401 10412 10422 10432 10442 10449 10457 10465 10475 10486 10496 10508 10520 10531 10541 10548 10560 10572 10582 10592 10598 10604 10612 10620 10631 10642 10650 10656 10661 10666 10670 10673 10677 10682 10687 10692 10699 10705 10710 10714 10718 10721 10724 10727 10728 10730 10731 10732 10733 10735 10738 10741 10744 10748 10751 10755
10388 10386 10384 10382 10379 10377 10375 10372 10370 10368 10367 10366 10365 10364 10362 10361 10361 10362 10363 10366 10368 10371 10374 10377 10381 10382 10382 10387 10387 10386 10394 10405 10414 10424 10433 10441 10449 10457 10466 10477 10489 10501 10511 10520 10530 10539 10551 10562 10574 10584 10592 10599 10607 10614 10624 10635 10644 10650 10655 10660 10663 10666 10671 10676 10682 10690 10696 10702 10707 10711 10714 10716 10719 10722 10724 10725 10726 10727 10730 10732 10735 10739 10742 10745 10748 10752
10387 10385 10383 10381 10378 10376 10374 10372 10370 10368 10366 10364 10363 10361 10360 10359 10359 10360 10362 10363 10365 10367 10368 10371 10373 10374 10375 10378 10378 10380 10390 10400 10409 10418 10426 10434 10442 10451 10458 10468 10481 10492 10502 10511 10521 10530 10539 10551 10564 10575 10584 10592 10598 10605 10618 10629 10638 10645 10650 10653 10656 10659 10664 10671 10678 10686 10693 10698 10702 10706 10708 10711 10715 10717 10719 10721 10724 10725 10727 10730 10733 10736 10739 10742 10745 10748
10387 10385 10382 10380 10378 10376 10374 10373 10371 10369 10366 10364 10362 10361 10359 10358 10358 10358 10360 10361 10362 10363 10363 10365 10368 10367 10369 10372 10373 10377 10388 10398 10407 10414 10420 10427 10435 10443 10452 10461 10473 10484 10493 10502 10512 10521 10530 10540 10554 10564 10573 10581 10589 10599 10612 10622 10631 10638 10643 10646 10649 10654 10659 10666 10675 10683 10688 10693 10697 10700 10704 10707 10710 10713 10716 10720 10722 10723 10725 10727 10730 10734 10736 10739 10742 10745
10388 10385 10383 10381 10379 10378 10376 10374 10372 10370 10367 10365 10363 10361 10359 10358 10357 10357 10358 10358 10359 10359 10361 10365 10366 10365 10365 10366 10367 10374 10387 10396 10401 10405 10411 10418 10425 10433 10443 10453 10465 10475 10484 10493 10503 10513 10522 10531 10543 10554 10563 10573 10583 10594 10605 10614 10623 10630 10635 10639 10643 10649 10656 10663 10672 10679 10683 10688 10692 10696 10700 10703 10707 10710 10714 10717 10718 10719 10722 10725 10728 10731 10734 10737 10740 10743
10390 10387 10385 10383 10381 10380 10377 10375 10373 10371 10368 10366 10363 10361 10359 10357 10356 10356 10357 10357 10357 10357 10359 10363 10364 10363 10362 10360 10364 10372 10379 10382 10385 10392 10400 10408 10415 10422 10432 10443 10455 10465 10473 10482 10493 10505 10514 10522 10533 10545 10555 10566 10577 10587 10597 10608 10617 10624 10629 10633 10637 10645 10652 10660 10669 10675 10679 10684 10688 10692 10696 10700 10704 10707 10711 10713 10714 10716 10719 10722 10725 10729 10732 10736 10739 10742
10393 10390 10388 10385 10383 10381 10379 10377 10375 10373 10370 10367 10365 10362 10360 10358 10356 10356 10356 10356 10356 10357 10359 10361 10360 10357 10353 10353 10362 10370 10373 10373 10376 10384 10392 10399 10404 10411 10420 10432 10444 10455 10463 10471 10483 10495 10504 10513 10525 10536 10546 10558 10569 10581 10592 10602 10610 10617 10623 10628 10633 10641 10649 10657 10665 10670 10675 10679 10683 10688 10692 10695 10699 10703 10707 10710 10712 10714 10717 10721 10724 10727 10731 10734 10738 10740
10396 10393 10389 10386 10385 10382 10380 10378 10376 10374 10372 10369 10367 10364 10361 10359 10357 10356 10356 10356 10357 10357 10359 10359 10358 10354 10350 10354 10365 10373 10376 10377 10379 10382 10385 10390 10396 10401 10409 10421 10434 10445 10454 10463 10474 10485 10495 10503 10515 10528 10538 10548 10560 10572 10584 10594 10602 10609 10616 10621 10628 10637 10645 10654 10661 10665 10670 10674 10679 10684 10687 10689 10693 10698 10702 10706 10709 10712 10716 10719 10722 10726 10729 10732 10735 10738
10398 10395 10392 10389 10387 10385 10382 10380 10377 10375 10373 10371 10369 10366 10363 10361 10359 10357 10356 10356 10356 10357 10358 10358 10356 10353 10353 10361 10370 10373 10374 10377 10382 10385 10386 10390 10394 10399 10406 10415 10427 10438 10447 10457 10467 10477 10486 10495 10506 10519 10529 10540 10551 10561 10572 10584 10592 10600 10607 10613 10621 10631 10640 10649 10656 10661 10665 10670 10675 10679 10682 10684 10687 10691 10696 10701 10706 10710 10714 10718 10721 10724 10728 10731 10733 10735
10401 10398 10395 10392 10390 10387 10384 10382 10379 10376 10374 10372 10370 10367 10365 10363 10361 10359 10358 10356 10356 10355 10356 10356 10356 10354 10356 10364 10372 10374 10373 10375 10378 10381 10384 10389 10395 10400 10406 10414 10425 10436 10444 10453 10463 10472 10479 10486 10497 10509 10519 10530 10541 10551 10563 10574 10584 10594 10601 10608 10617 10626 10635 10645 10652 10657 10662 10666 10671 10676 10679 10682 10684 10688 10693 10697 10703 10708 10712 10717 10720 10723 10727 10729 10730 10732
10404 10401 10398 10394 10391 10389 10387 10384 10381 10379 10376 10373 10371 10369 10366 10364 10363 10361 10359 10357 10356 10355 10355 10355 10354 10355 10358 10363 10368 10371 10372 10374 10376 10377 10380 10386 10393 10399 10404 10412 10423 10432 10440 10450 10460 10469 10477 10483 10491 10502 10512 10522 10532 10542 10555 10567 10577 10587 10597 10605 10613 10622 10633 10643 10648 10652 10657 10662 10668 10673 10677 10680 10683 10687 10691 10695 10700 10705 10710 10716 10719 10722 10725 10726 10727 10729
10406 10403 10400 10396 10393 10391 10389 10387 10384 10381 10378 10376 10374 10371 10368 10366 10365 10363 10361 10359 10357 10356 10355 10354 10354 10355 10358 10361 10365 10368 10369 10370 10374 10377 10380 10383 10388 10394 10402 10409 10418 10426 10434 10443 10454 10464 10474 10481 10489 10500 10509 10518 10527 10536 10548 10560 10569 10579 10589 10597 10606 10618 10630 10639 10643 10647 10651 10657 10663 10669 10672 10677 10681 10686 10690 10693 10697 10703 10708 10713 10717 10720 10722 10723 10724 10726
10408 10405 10402 10398 10395 10393 10391 10389 10386 10383 10380 10378 10376 10374 10370 10368 10366 10364 10362 10361 10359 10358 10357 10355 10355 10356 10357 10360 10363 10367 10367 10367 10369 10371 10374 10379 10385 10393 10401 10407 10414 10421 10428 10435 10445 10455 10466 10477 10487 10497 10507 10516 10524 10532 10542 10553 10562 10571 10581 10590 10600 10611 10623 10631 10637 10642 10647 10653 10659 10664 10668 10672 10678 10683 10687 10692 10696 10702 10707 10711 10714 10717 10719 10720 10721 10723
10410 10408 10405 10401 10398 10396 10394 10392 10388 10385 10382 10381 10379 10376 10373 10370 10368 10366 10364 10362 10361 10360 10358 10357 10357 10357 10358 10359 10361 10364 10366 10368 10369 10369 10370 10374 10383 10394 10402 10407 10412 10418 10425 10432 10440 10449 10459 10469 10480 10492 10504 10513 10521 10528 10537 10546 10556 10566 10574 10584 10595 10606 10614 10621 10629 10636 10644 10650 10656 10661 10665 10670 10675 10680 10685 10690 10694 10700 10705 10708 10710 10713 10715 10717 10719 10720
10413 10410 10407 10403 10400 10398 10397 10395 10391 10388 10385 10383 10380 10378 10374 10371 10369 10367 10366 10365 10363 10361 10360 10359 10358 10358 10358 10359 10361 10363 10365 10367 10368 10369 10371 10372 10377 10386 10395 10402 10409 10416 10423 10430 10437 10446 10454 10463 10472 10484 10498 10509 10517 10524 10531 10539 10550 10561 10569 10578 10589 10599 10608 10616 10625 10633 10642 10648 10652 10657 10664 10669 10674 10679 10683 10688 10692 10697 10703 10706 10708 10710 10712 10714 10716 10717
10415 10412 10407 10404 10401 10400 10399 10397 10394 10391 10388 10385 10382 10380 10377 10374 10371 10369 10367 10366 10365 10363 10361 10360 10359 10359 10359 10359 10360 10361 10363 10365 10367 10368 10370 10372 10375 10379 10384 10392 10403 10412 10421 10428 10435 10444 10452 10459 10467 10477 10491 10503 10511 10518 10525 10534 10544 10555 10565 10574 10583 10592 10604 10615 10623 10632 10639 10643 10648 10655 10662 10668 10673 10678 10683 10687 10691 10696 10700 10703 10705 10708 10710 10711 10712 10714
10417 10413 10408 10405 10403 10402 10400 10399 10397 10394 10391 10388 10386 10383 10380 10376 10373 10371 10369 10367 10365 10364 10363 10362 10361 10360 10359 10359 10360 10360 10361 10364 10366 10367 10368 10369 10373 10377 10381 10387 10395 10405 10415 10424 10433 10441 10449 10456 10464 10473 10484 10496 10505 10512 10521 10530 10539 10550 10560 10571 10580 10589 10600 10612 10621 10629 10634 10639 10646 10655 10662 10667 10673 10678 10683 10687 10691 10695 10698 10700 10702 10705 10707 10708 10710 10711
10418 10415 10410 10407 10406 10404 10403 10403 10401 10398 10395 10392 10389 10386 10382 10378 10374 10371 10370 10368 10367 10366 10364 10363 10363 10362 10361 10360 10360 10360 10361 10362 10364 10366 10367 10367 10369 10373 10380 10386 10393 10400 10407 10416 10427 10437 10445 10452 10460 10469 10479 10490 10500 10508 10516 10525 10535 10545 10556 10567 10577 10586 10597 10608 10617 10623 10629 10636 10645 10654 10661 10667 10672 10678 10682 10687 10691 10693 10694 10696 10699 10703 10705 10706 10708 10709
10421 10417 10413 10410 10408 10407 10406 10405 10404 10402 10399 10396 10392 10388 10384 10379 10376 10374 10373 10371 10370 10368 10366 10364 10363 10362 10361 10361 10361 10360 10360 10361 10363 10364 10366 10367 10367 10371 10377 10383 10391 10398 10403 10410 10419 10429 10439 10447 10456 10465 10475 10486 10496 10502 10510 10520 10529 10540 10551 10563 10573 10582 10592 10603 10612 10619 10627 10635 10644 10653 10661 10667 10672 10678 10682 10685 10688 10690 10691 10693 10696 10700 10702 10704 10706 10708
10424 10421 10417 10415 10413 10411 10409 10408 10407 10406 10403 10399 10395 10390 10386 10383 10381 10379 10377 10375 10373 10371 10369 10366 10364 10362 10361 10361 10361 10361 10360 10361 10362 10363 10364 10365 10366 10369 10374 10381 10388 10395 10402 10407 10412 10421 10432 10443 10452 10461 10470 10481 10491 10498 10504 10513 10523 10534 10546 10559 10569 10578 10588 10599 10609 10618 10626 10633 10643 10653 10660 10666 10672 10678 10681 10683 10685 10687 10689 10690 10693 10696 10699 10701 10704 10708
10426 10424 10422 10419 10417 10413 10411 10410 10409 10407 10405 10401 10397 10393 10389 10386 10384 10382 10380 10377 10375 10373 10370 10367 10364 10362 10361 10360 10360 10360 10360 10360 10361 10362 10362 10363 10364 10366 10370 10377 10384 10391 10399 10405 10410 10416 10425 10436 10446 10455 10464 10475 10485 10493 10499 10507 10517 10529 10542 10554 10565 10575 10587 10599 10608 10616 10623 10631 10643 10652 10658 10665 10671 10675 10677 10679 10681 10684 10686 10689 10690 10692 10695 10699 10703 10707
10428 10425 10424 10421 10417 10414 10411 10410 10410 10409 10408 10404 10399 10395 10391 10389 10386 10384 10382 10380 10377 10374 10371 10368 10366 10364 10362 10361 10360 10360 10360 10360 10360 10361 10362 10362 10364 10365 10368 10374 10380 10388 10395 10401 10408 10413 10420 10430 10441 10450 10458 10468 10479 10488 10495 10503 10514 10527 10540 10552 10562 10574 10587 10596 10603 10612 10620 10630 10642 10650 10657 10664 10669 10671 10673 10675 10678 10681 10684 10686 10688 10690 10692 10697 10702 10706
10429 10427 10425 10423 10419 10415 10413 10413 10412 10411 10410 10406 10401 10397 10394 10392 10389 10386 10383 10381 10379 10376 10373 10370 10367 10365 10363 10362 10361 10360 10359 10359 10359 10360 10361 10362 10364 10366 10369 10373 10377 10384 10391 10398 10405 10412 10418 10426 10436 10445 10453 10462 10472 10483 10492 10502 10513 10526 10539 10550 10559 10571 10582 10591 10598 10607 10617 10630 10642 10649 10655 10661 10664 10666 10668 10671 10674 10678 10681 10684 10685 10687 10690 10694 10699 10702
10431 10429 10427 10425 10422 10418 10416 10416 10415 10413 10411 10408 10404 10401 10398 10396 10394 10390 10386 10383 10380 10377 10374 10371 10369 10367 10365 10363 10362 10360 10359 10359 10359 10359 10361 10363 10365 10367 10370 10373 10377 10380 10387 10394 10401 10409 10417 10424 10432 10440 10449 10457 10467 10479 10492 10502 10511 10522 10535 10546 10554 10565 10575 10583 10592 10602 10615 10631 10642 10647 10652 10657 10659 10661 10664 10667 10671 10675 10678 10680 10682 10684 10688 10691 10694 10697
10433 10431 10430 10428 10426 10422 10419 10418 10417 10416 10415 10413 10410 10406 10402 10400 10398 10394 10390 10386 10383 10379 10377 10374 10372 10369 10367 10365 10363 10361 10360 10360 10360 10361 10361 10363 10365 10367 10370 10373 10378 10381 10384 10389 10396 10404 10413 10421 10428 10436 10445 10454 10464 10477 10490 10500 10509 10519 10531 10541 10551 10562 10572 10580 10589 10601 10616 10631 10638 10642 10647 10651 10654 10658 10662 10664 10668 10671 10674 10676 10679 10683 10686 10688 10691 10694
10435 10433 10432 10430 10428 10425 10422 10420 10421 10421 10420 10419 10415 10411 10408 10405 10402 10399 10396 10392 10388 10384 10381 10378 10374 10371 10368 10366 10365 10363 10362 10362 10362 10363 10363 10364 10366 10369 10371 10374 10378 10382 10385 10389 10393 10398 10407 10417 10425 10433 10443 10453 10462 10473 10485 10496 10506 10515 10525 10535 10546 10558 10570 10580 10590 10603 10618 10628 10633 10637 10643 10647 10650 10655 10658 10661 10664 10667 10669 10673 10677 10681 10683 10686 10689 10691
10437 10435 10433 10432 10431 10429 10425 10423 10423 10422 10422 10421 10420 10417 10414 10410 10406 10402 10400 10397 10393 10389 10384 10381 10377 10374 10370 10368 10367 10365 10364 10364 10364 10364 10365 10365 10367 10369 10372 10375 10378 10382 10387 10391 10394 10398 10404 10414 10424 10432 10441 10451 10459 10469 10481 10493 10503 10512 10521 10531 10542 10555 10569 10580 10592 10605 10617 10623 10627 10633 10638 10642 10647 10652 10654 10657 10660 10662 10666 10671 10675 10678 10681 10684 10687 10689
10440 10438 10436 10434 10433 10431 10428 10426 10425 10424 10424 10426 10426 10423 10418 10413 10409 10404 10401 10400 10397 10392 10388 10384 10380 10377 10373 10371 10369 10368 10367 10366 10366 10367 10367 10367 10368 10369 10372 10375 10379 10383 10388 10393 10396 10399 10403 10411 10421 10429 10438 10447 10456 10467 10479 10491 10501 10510 10518 10527 10539 10554 10567 10578 10590 10603 10613 10618 10623 10628 10634 10639 10645 10648 10651 10653 10656 10660 10664 10670 10674 10676 10679 10682 10684 10686
10442 10440 10438 10436 10435 10433 10430 10428 10427 10427 10429 10430 10428 10424 10419 10416 10412 10408 10405 10402 10398 10393 10389 10385 10381 10378 10375 10373 10372 10371 10370 10369 10368 10368 10369 10368 10369 10371 10373 10376 10379 10383 10388 10394 10399 10400 10402 10408 10417 10426 10434 10443 10453 10463 10474 10486 10496 10504 10511 10522 10536 10551 10564 10576 10588 10600 10609 10614 10619 10624 10631 10637 10641 10645 10648 10650 10653 10658 10663 10668 10672 10674 10677 10679 10682 10684
10443 10441 10439 10438 10437 10435 10433 10431 10430 10431 10431 10429 10425 10422 10420 10417 10413 10410 10408 10405 10401 10397 10393 10389 10385 10382 10379 10377 10376 10375 10374 10373 10371 10370 10370 10371 10372 10373 10375 10377 10380 10383 10387 10392 10398 10402 10404 10408 10415 10424 10432 10441 10450 10460 10470 10481 10490 10498 10507 10520 10535 10550 10562 10574 10586 10597 10604 10609 10615 10622 10630 10634 10638 10641 10645 10647 10651 10656 10661 10666 10669 10672 10674 10677 10679 10681
10445 10442 10441 10440 10438 10437 10436 10434 10433 10432 10429 10426 10424 10422 10420 10419 10416 10414 10412 10410 10406 10403 10398 10394 10391 10387 10384 10382 10380 10379 10378 10378 10377 10375 10374 10375 10376 10377 10379 10380 10382 10385 10387 10390 10396 10402 10405 10408 10414 10422 10429 10437 10446 10456 10466 10475 10485 10495 10508 10522 10536 10549 10562 10573 10584 10591 10598 10605 10613 10621 10627 10630 10634 10638 10641 10644 10649 10654 10659 10663 10666 10669 10672 10674 10676 10678
10446 10444 10443 10442 10440 10439 10439 10436 10433 10431 10429 10428 10428 10428 10428 10427 10424 10420 10415 10412 10409 10405 10401 10398 10395 10392 10390 10387 10385 10383 10382 10381 10380 10379 10379 10380 10381 10381 10382 10383 10386 10389 10392 10393 10395 10400 10404 10407 10412 10418 10425 10432 10441 10451 10460 10471 10483 10496 10510 10524 10537 10550 10561 10571 10580 10588 10595 10604 10612 10618 10622 10626 10630 10634 10637 10641 10647 10652 10656 10660 10662 10666 10670 10672 10674 10675
10447 10445 10444 10443 10442 10442 10440 10437 10435 10435 10434 10433 10433 10433 10432 10431 10427 10421 10416 10414 10412 10409 10404 10401 10398 10396 10394 10392 10390 10388 10386 10384 10383 10383 10383 10385 10386 10386 10386 10387 10389 10393 10397 10400 10401 10403 10407 10410 10413 10418 10424 10431 10439 10448 10459 10472 10486 10500 10513 10525 10538 10550 10560 10570 10578 10586 10593 10601 10608 10613 10617 10622 10626 10630 10634 10639 10644 10649 10653 10656 10660 10664 10668 10670 10672 10673
10448 10446 10445 10445 10444 10443 10441 10440 10439 10438 10437 10436 10435 10434 10432 10431 10426 10421 10418 10418 10416 10412 10408 10404 10402 10400 10398 10397 10395 10393 10390 10388 10387 10388 10389 10390 10392 10392 10391 10391 10392 10396 10400 10405 10408 10411 10414 10417 10420 10425 10430 10437 10445 10454 10465 10478 10490 10503 10515 10527 10539 10549 10559 10567 10575 10583 10590 10596 10603 10608 10613 10618 10623 10627 10632 10637 10643 10648 10651 10654 10659 10663 10667 10669 10670 10671
10448 10447 10447 10446 10446 10444 10443 10442 10441 10440 10439 10438 10437 10435 10434 10432 10427 10422 10423 10424 10420 10414 10411 10408 10406 10405 10403 10402 10401 10399 10396 10393 10392 10392 10394 10395 10398 10400 10398 10396 10397 10400 10404 10409 10414 10419 10423 10427 10431 10435 10441 10447 10455 10464 10474 10484 10494 10505 10517 10529 10539 10548 10557 10565 10572 10580 10587 10593 10600 10606 10611 10616 10621 10626 10632 10637 10643 10647 10650 10654 10659 10663 10666 10668 10669 10669
10449 10448 10447 10447 10447 10445 10444 10444 10443 10441 10440 10440 10438 10437 10436 10433 10428 10427 10429 10428 10421 10416 10414 10412 10410 10410 10408 10407 10406 10404 10402 10400 10400 10399 10399 10401 10403 10405 10404 10402 10403 10405 10410 10414 10419 10424 10430 10435 10440 10444 10449 10456 10463 10471 10480 10489 10498 10509 10520 10530 10539 10548 10556 10564 10571 10578 10585 10593 10599 10605 10610 10616 10621 10627 10632 10637 10642 10646 10650 10654 10659 10662 10664 10666 10666 10667
10449 10449 10448 10448 10448 10446 10445 10445 10443 10442 10441 10441 10440 10439 10437 10434 10432 10433 10432 10428 10423 10420 10419 10417 10416 10415 10413 10412 10412 10410 10409 10410 10411 10410 10408 10408 10408 10408 10408 10409 10409 10411 10415 10419 10423 10428 10433 10440 10446 10453 10458 10464 10471 10478 10486 10495 10504 10514 10524 10533 10541 10549 10557 10564 10571 10578 10586 10593 10599 10604 10610 10616 10622 10627 10632 10637 10641 10645 10649 10653 10657 10660 10661 10662 10664 10665
10449 10449 10448 10448 10448 10447 10446 10445 10444 10443 10443 10443 10442 10441 10439 10437 10437 10437 10434 10430 10427 10425 10424 10423 10422 10421 10418 10419 10420 10419 10419 10420 10420 10418 10417 10416 10415 10414 10414 10416 10417 10419 10422 10426 10430 10434 10438 10443 10450 10457 10464 10471 10478 10486 10494 10502 10511 10520 10528 10537 10544 10551 10557 10564 10572 10579 10587 10593 10599 10604 10610 10616 10622 10627 10631 10636 10640 10644 10648 10651 10654 10656 10657 10659 10661 10663
10450 10449 10449 10448 10448 10447 10447 10446 10445 10444 10444 10444 10444 10444 10442 10441 10441 10439 10436 10433 10432 10430 10429 10428 10427 10426 10424 10423 10424 10426 10427 10427 10425 10424 10424 10424 10423 10423 10423 10424 10427 10429 10432 10436 10439 10443 10448 10452 10457 10463 10470 10477 10484 10492 10501 10509 10517 10525 10533 10540 10546 10552 10559 10567 10575 10582 10588 10593 10599 10604 10610 10616 10621 10626 10630 10635 10639 10642 10645 10648 10651 10653 10654 10655 10657 10659
10449 10449 10449 10449 10448 10448 10447 10447 10446 10445 10446 10446 10446 10445 10444 10444 10443 10441 10439 10438 10436 10434 10433 10432 10432 10433 10431 10428 10427 10428 10430 10431 10430 10430 10431 10431 10432 10432 10433 10434 10436 10439 10442 10446 10450 10454 10458 10464 10470 10475 10480 10485 10492 10499 10506 10514 10521 10527 10534 10541 10548 10554 10562 10570 10578 10583 10589 10594 10599 10604 10610 10616 10621 10626 10630 10634 10638 10640 10642 10645 10647 10650 10651 10652 10654 10656
10449 10449 10449 10449 10449 10449 10448 10447 10447 10446 10446 10447 10447 10447 10446 10446 10445 10443 10442 10441 10440 10438 10437 10436 10436 10437 10436 10433 10431 10431 10432 10434 10436 10436 10437 10439 10441 10441 10442 10443 10445 10448 10451 10456 10460 10464 10468 10474 10481 10487 10492 10497 10503 10508 10514 10521 10526 10532 10538 10545 10552 10559 10566 10573 10579 10585 10590 10595 10600 10605 10611 10617 10622 10626 10630 10634 10636 10637 10639 10642 10645 10647 10647 10648 10650 10651
10447 10448 10449 10449 10449 10449 10449 10448 10447 10447 10447 10448 10448 10448 10448 10448 10447 10445 10444 10444 10443 10442 10440 10439 10438 10440 10441 10440 10438 10437 10437 10438 10440 10442 10443 10445 10446 10447 10450 10452 10454 10457 10461 10465 10469 10473 10477 10481 10487 10495 10501 10507 10512 10517 10523 10528 10534 10540 10546 10552 10557 10563 10570 10575 10581 10585 10590 10595 10600 10606 10612 10617 10622 10626 10629 10632 10633 10635 10637 10639 10642 10643 10643 10644 10646 10647
10446 10447 10448 10448 10449 10449 10449 10449 10448 10447 10447 10448 10449 10449 10449 10449 10448 10447 10446 10446 10446 10446 10445 10444 10442 10443 10444 10445 10444 10444 10444 10443 10444 10445 10448 10450 10451 10452 10456 10459 10461 10464 10469 10474 10478 10482 10487 10490 10495 10500 10507 10513 10519 10524 10529 10535 10541 10546 10552 10557 10563 10569 10574 10579 10583 10586 10590 10595 10600 10606 10612 10616 10620 10623 10626 10629 10630 10632 10634 10635 10637 10638 10639 10640 10641 10641
10443 10445 10447 10447 10448 10449 10449 10449 10448 10448 10447 10448 10449 10450 10450 10450 10450 10449 10448 10449 10449 10449 10449 10449 10448 10447 10447 10448 10449 10449 10449 10450 10450 10450 10452 10454 10456 10457 10460 10465 10468 10470 10474 10480 10485 10490 10494 10499 10504 10508 10513 10519 10524 10529 10534 10539 10544 10549 10554 10559 10566 10572 10577 10580 10584 10587 10590 10595 10600 10604 10609 10612 10615 10619 10622 10624 10626 10627 10628 10629 10631 10632 10634 10635 10635 10635
10441 10443 10445 10446 10447 10448 10449 10449 10449 10448 10448 10448 10449 10450 10451 10451 10451 10451 10450 10451 10451 10451 10452 10452 10453 10452 10451 10451 10452 10453 10453 10454 10456 10457 10458 10459 10459 10461 10464 10468 10471 10475 10479 10485 10490 10496 10500 10504 10510 10515 10520 10526 10531 10536 10540 10544 10547 10551 10555 10561 10566 10572 10577 10582 10585 10588 10591 10594 10598 10601 10604 10608 10611 10615 10617 10619 10620 10621 10622 10623 10625 10627 10629 10630 10630 10631
10438 10440 10442 10444 10445 10446 10448 10448 10449 10449 10449 10448 10449 10450 10451 10452 10452 10452 10452 10452 10453 10454 10455 10455 10456 10456 10456 10455 10456 10457 10457 10458 10460 10462 10463 10464 10465 10466 10468 10471 10475 10480 10484 10489 10494 10500 10505 10510 10513 10517 10521 10526 10531 10537 10542 10546 10550 10554 10558 10562 10567 10572 10576 10581 10585 10588 10589 10591 10594 10597 10600 10604 10607 10610 10612 10614 10615 10616 10617 10619 10621 10623 10625 10626 10627 10627